Powrót do katalogu

STARLINK-3121

AktywnyŁącznośćVLEO
NORAD 49428·PAYLOAD·🇺🇸 United States

Wystrzelony Nov 13, 2021 z Cape Canaveral Space Force Station

Loading…

Następne Przeloty (najbliższe 24 godziny)

TLE

ŚwieżeSource: CelesTrak SupGP

Epoka: Sep 14, 2026, 21:57 UTC

1 49428C 21104W   26257.91506944  .00036324  00000+0  18632-2 0  2571
2 49428  53.1577  95.8288 0001951 125.4369 126.3477 15.16015958    15

Śledź STARLINK-3121 w czasie rzeczywistym z AllMySat

Download on the App Store